Location: Cahas Mountain Overlook
(37.0833°N, 80.1000°W)
Time: 07:19:24
(UTC-04:00)

Explorer 7 - Pass Details

Date: 11 February 2026
Orbit: 430 x 540 km, 50.2° (Epoch: 14 March)

Event Time Altitude Azimuth Distance (km) Brightness Sun altitude
Rises 17:25:16 0° 235° (SW) 2,440 12.2 5.0°
Reaches altitude 10° 17:27:22 10° 238° (WSW) 1,588 11.4 4.6°
Maximum altitude 17:30:56 72° 323° (NW) 494 6.8 4.0°
Drops below altitude 10° 17:34:42 10° 48° (NE) 1,664 8.7 3.2°
Sets 17:36:56 0° 51° (NE) 2,571 9.6 2.8°
